{"data":{"norad_id":64103,"epoch":"2026-09-20T10:54:41.984640Z","epoch_age_seconds":147476,"freshness":"FRESH","line1":"1 64103U 25110H   26263.45465260  .00014045  00000+0  46320-3 0  9995","line2":"2 64103  53.1579 201.9721 0002201  86.1437 273.9816 15.31719838 75703","mean_motion":15.31719838,"eccentricity":0.0002201,"inclination_deg":53.1579,"raan_deg":201.9721,"arg_perigee_deg":86.1437,"mean_anomaly_deg":273.9816,"bstar":0.0004632,"rev_number":7570,"period_min":94.01197035355,"perigee_km":469.17343500724,"apogee_km":472.18828462913,"semimajor_km":6848.8178598182,"source":"CELESTRAK","updated_at":"2026-09-21T09:00:35.227899Z"}}